Tracking 35274 objects as of 11-Sep-2026
HD Live streaming from Space Station
objects crossing your sky now

ONEWEB-0446

Track ONEWEB-0446 now!
10-day predictions
ONEWEB-0446 is classified as:


NORAD ID: 51640
Int'l Code: 2022-012U
Launch date: February 10, 2022
Source: United Kingdom (UK)
Launch site: FRENCH GUIANA (FRGUI)
Your satellite tracking list
Your tracking list is empty




NASA's NSSDC Master Catalog

Two Line Element Set (TLE):
1 51640U 22012U   26254.37873606 -.00000624  00000-0 -18226-2 0  9997
2 51640  87.8890  19.1185 0001409 105.0097 255.1186 13.10372716220619
Source of the keplerian elements: AFSPC